フィエチジョシュ彗星

C/2024 G1 ( Wierzchos )

English version
Home page
Updated on August 9, 2025

---------------------------------------------------------------------

・ プロフィール

発見日 2024年4月7日
発見光度 20.6等
発見者 Kacper W. Wierzchos (Bok reflector at Kitt Peak)

・ 写真集

・ 軌道要素

Epoch 2025 May 5.0 TT = JDT 2460800.5
T 2024 Oct. 21.07372 TT                                 Payne
q   3.9301298            (2000.0)            P               Q
z  +0.0081885      Peri.  128.22417     -0.49494453     -0.70577898
 +/-0.0000060      Node    30.60484     -0.65845028     -0.07598521
e   0.9678181      Incl.   95.39494     +0.56698602     -0.70434528
From 110 observations 2024 Apr. 7-2025 Apr. 30, mean residual 0".7.

・ 光度変化

        m1 = 10.5 + 5 logΔ + 10.0 log r

---------------------------------------------------------------------

軌道要素はM.P.E.C. 2025-J08に掲載されたものです。
光度グラフはComet for Windowsで作成したものです。

---------------------------------------------------------------------

Copyright(C) Seiichi Yoshida (comet@aerith.net). All rights reserved.